Time,TemperatureF,DewpointF,PressureIn,WindDirection,WindDirectionDegrees,WindSpeedMPH,WindSpeedGustMPH,Humidity,HourlyPrecipIn,Conditions,Clouds,dailyrainin,SoftwareType,DateUTC
2013-06-10 00:01:00,68.8,65.1,29.90,ESE,110,3.0,4.0,88,0.00,,,0.02,Wunderground v.1.15,2013-06-10 04:01:00,
2013-06-10 00:03:00,68.7,65.0,29.90,SSE,148,3.0,11.0,88,0.00,,,0.00,Wunderground v.1.15,2013-06-10 04:03:00,
2013-06-10 00:06:00,68.7,65.0,29.90,SSE,166,4.0,11.0,88,0.00,,,0.00,Wunderground v.1.15,2013-06-10 04:06:00,
2013-06-10 00:10:00,68.6,65.2,29.90,ESE,114,4.0,4.0,89,0.00,,,0.00,Wunderground v.1.15,2013-06-10 04:10:00,
2013-06-10 00:15:00,68.5,65.1,29.90,SE,136,4.0,11.0,89,0.00,,,0.00,Wunderground v.1.15,2013-06-10 04:15:00,
2013-06-10 00:21:00,68.5,65.1,29.90,SE,146,4.0,11.0,89,0.00,,,0.00,Wunderground v.1.15,2013-06-10 04:21:00,
2013-06-10 00:24:00,68.4,65.0,29.90,SE,141,4.0,11.0,89,0.00,,,0.00,Wunderground v.1.15,2013-06-10 04:24:00,
2013-06-10 00:29:00,68.4,65.0,29.89,SSE,150,4.0,11.0,89,0.00,,,0.00,Wunderground v.1.15,2013-06-10 04:29:00,
2013-06-10 00:34:00,68.3,64.9,29.89,SE,131,5.0,11.0,89,0.00,,,0.00,Wunderground v.1.15,2013-06-10 04:34:00,
2013-06-10 00:40:00,68.3,64.9,29.89,SE,144,5.0,5.0,89,0.00,,,0.00,Wunderground v.1.15,2013-06-10 04:40:00,
2013-06-10 00:45:00,68.2,64.8,29.90,SE,124,4.0,11.0,89,0.00,,,0.00,Wunderground v.1.15,2013-06-10 04:45:00,
2013-06-10 00:50:00,68.2,64.8,29.90,SSE,165,3.0,11.0,89,0.00,,,0.00,Wunderground v.1.15,2013-06-10 04:50:00,
2013-06-10 00:56:00,68.1,64.7,29.90,ESE,108,5.0,11.0,89,0.00,,,0.00,Wunderground v.1.15,2013-06-10 04:56:00,
2013-06-10 01:01:00,68.0,64.6,29.89,SSE,147,5.0,11.0,89,0.00,,,0.00,Wunderground v.1.15,2013-06-10 05:01:00,
2013-06-10 01:06:00,67.9,64.5,29.89,SSE,163,4.0,11.0,89,0.00,,,0.00,Wunderground v.1.15,2013-06-10 05:06:00,
2013-06-10 01:11:00,67.9,64.9,29.89,SE,144,5.0,6.0,90,0.00,,,0.00,Wunderground v.1.15,2013-06-10 05:11:00,
2013-06-10 01:17:00,67.8,64.8,29.89,SE,143,4.0,11.0,90,0.00,,,0.00,Wunderground v.1.15,2013-06-10 05:17:00,
2013-06-10 01:22:00,67.7,64.7,29.88,ESE,114,3.0,11.0,90,0.00,,,0.00,Wunderground v.1.15,2013-06-10 05:22:00,
2013-06-10 01:27:00,67.7,64.7,29.88,SSE,165,4.0,11.0,90,0.00,,,0.00,Wunderground v.1.15,2013-06-10 05:27:00,
2013-06-10 01:32:00,67.6,64.6,29.88,ESE,119,4.0,11.0,90,0.00,,,0.00,Wunderground v.1.15,2013-06-10 05:32:00,
2013-06-10 01:38:00,67.6,64.6,29.88,SE,126,3.0,11.0,90,0.00,,,0.00,Wunderground v.1.15,2013-06-10 05:38:00,
2013-06-10 01:43:00,67.4,64.7,29.87,SE,128,2.0,11.0,91,0.00,,,0.00,Wunderground v.1.15,2013-06-10 05:43:00,
2013-06-10 01:48:00,67.3,64.6,29.87,ENE,72,2.0,11.0,91,0.00,,,0.00,Wunderground v.1.15,2013-06-10 05:48:00,
2013-06-10 01:54:00,67.2,64.8,29.87,ESE,110,2.0,11.0,92,0.00,,,0.00,Wunderground v.1.15,2013-06-10 05:54:00,
2013-06-10 01:59:00,67.1,64.7,29.87,East,96,3.0,11.0,92,0.00,,,0.00,Wunderground v.1.15,2013-06-10 05:59:00,
2013-06-10 02:05:00,67.1,64.7,29.86,SSE,159,2.0,11.0,92,0.00,,,0.00,Wunderground v.1.15,2013-06-10 06:05:00,
2013-06-10 02:10:00,67.1,64.7,29.87,ESE,118,2.0,11.0,92,0.00,,,0.00,Wunderground v.1.15,2013-06-10 06:10:00,
2013-06-10 02:16:00,67.1,64.7,29.87,ESE,115,3.0,11.0,92,0.00,,,0.00,Wunderground v.1.15,2013-06-10 06:16:00,
2013-06-10 02:21:00,67.1,65.0,29.87,SE,133,4.0,5.0,93,0.00,,,0.01,Wunderground v.1.15,2013-06-10 06:21:00,
2013-06-10 02:26:00,67.1,65.0,29.87,SE,146,4.0,11.0,93,0.00,,,0.01,Wunderground v.1.15,2013-06-10 06:26:00,
2013-06-10 02:32:00,67.1,65.0,29.86,SE,139,3.0,11.0,93,0.05,,,0.01,Wunderground v.1.15,2013-06-10 06:32:00,
2013-06-10 02:37:00,66.9,65.1,29.86,SE,139,3.0,11.0,94,0.22,,,0.03,Wunderground v.1.15,2013-06-10 06:37:00,
2013-06-10 02:42:00,66.8,65.0,29.86,SE,124,3.0,11.0,94,0.10,,,0.04,Wunderground v.1.15,2013-06-10 06:42:00,
2013-06-10 02:48:00,66.7,64.9,29.86,SSE,166,2.0,11.0,94,0.08,,,0.04,Wunderground v.1.15,2013-06-10 06:48:00,
2013-06-10 02:53:00,66.6,65.1,29.86,SE,138,2.0,11.0,95,0.06,,,0.05,Wunderground v.1.15,2013-06-10 06:53:00,
2013-06-10 02:59:00,66.5,65.0,29.86,SSE,150,2.0,11.0,95,0.08,,,0.06,Wunderground v.1.15,2013-06-10 06:59:00,
2013-06-10 03:05:00,66.5,65.0,29.86,SE,126,3.0,11.0,95,0.07,,,0.06,Wunderground v.1.15,2013-06-10 07:05:00,
2013-06-10 03:11:00,66.5,65.3,29.85,SSE,157,3.0,11.0,96,0.07,,,0.07,Wunderground v.1.15,2013-06-10 07:11:00,
2013-06-10 03:16:00,66.4,65.2,29.85,SE,134,3.0,11.0,96,0.06,,,0.07,Wunderground v.1.15,2013-06-10 07:16:00,
2013-06-10 03:21:00,66.4,65.2,29.85,SE,136,2.0,11.0,96,0.04,,,0.07,Wunderground v.1.15,2013-06-10 07:21:00,
2013-06-10 03:27:00,66.4,65.2,29.85,SE,138,3.0,11.0,96,0.00,,,0.08,Wunderground v.1.15,2013-06-10 07:27:00,
2013-06-10 03:33:00,66.4,65.2,29.84,SSE,147,4.0,11.0,96,0.00,,,0.08,Wunderground v.1.15,2013-06-10 07:33:00,
2013-06-10 03:38:00,66.3,65.1,29.84,SSE,150,3.0,11.0,96,0.06,,,0.09,Wunderground v.1.15,2013-06-10 07:38:00,
2013-06-10 03:43:00,66.3,65.1,29.84,SSE,160,4.0,11.0,96,0.06,,,0.09,Wunderground v.1.15,2013-06-10 07:43:00,
2013-06-10 03:48:00,66.2,65.0,29.84,SSE,163,4.0,11.0,96,0.06,,,0.10,Wunderground v.1.15,2013-06-10 07:48:00,
2013-06-10 03:54:00,66.2,65.0,29.84,SE,143,4.0,11.0,96,0.10,,,0.11,Wunderground v.1.15,2013-06-10 07:54:00,
2013-06-10 03:59:00,66.1,65.2,29.83,SE,130,4.0,11.0,97,0.06,,,0.11,Wunderground v.1.15,2013-06-10 07:59:00,
2013-06-10 04:05:00,66.1,65.2,29.83,SSE,149,4.0,11.0,97,0.04,,,0.12,Wunderground v.1.15,2013-06-10 08:05:00,
2013-06-10 04:10:00,66.1,65.2,29.83,SSE,154,3.0,11.0,97,0.04,,,0.12,Wunderground v.1.15,2013-06-10 08:10:00,
2013-06-10 04:16:00,66.1,65.2,29.83,ESE,117,3.0,11.0,97,0.04,,,0.12,Wunderground v.1.15,2013-06-10 08:16:00,
2013-06-10 04:21:00,66.0,65.1,29.82,East,101,1.0,11.0,97,0.00,,,0.12,Wunderground v.1.15,2013-06-10 08:21:00,
2013-06-10 04:26:00,66.0,65.1,29.82,SSE,165,1.0,11.0,97,0.00,,,0.12,Wunderground v.1.15,2013-06-10 08:26:00,
2013-06-10 04:31:00,66.0,65.1,29.82,East,92,1.0,11.0,97,0.00,,,0.13,Wunderground v.1.15,2013-06-10 08:31:00,
2013-06-10 04:36:00,66.0,65.1,29.82,ESE,119,2.0,11.0,97,0.00,,,0.13,Wunderground v.1.15,2013-06-10 08:36:00,
2013-06-10 04:41:00,66.0,65.1,29.82,SE,132,3.0,11.0,97,0.00,,,0.13,Wunderground v.1.15,2013-06-10 08:41:00,
2013-06-10 04:47:00,65.9,65.0,29.81,SE,128,2.0,11.0,97,0.00,,,0.13,Wunderground v.1.15,2013-06-10 08:47:00,
2013-06-10 04:52:00,65.9,65.0,29.81,ESE,123,2.0,11.0,97,0.00,,,0.13,Wunderground v.1.15,2013-06-10 08:52:00,
2013-06-10 04:58:00,65.8,64.9,29.81,ESE,117,2.0,11.0,97,0.00,,,0.13,Wunderground v.1.15,2013-06-10 08:58:00,
2013-06-10 05:03:00,65.8,64.9,29.81,ESE,107,2.0,11.0,97,0.00,,,0.13,Wunderground v.1.15,2013-06-10 09:03:00,
2013-06-10 05:09:00,65.8,64.9,29.81,SSE,166,2.0,11.0,97,0.00,,,0.13,Wunderground v.1.15,2013-06-10 09:09:00,
2013-06-10 05:14:00,65.8,64.9,29.81,ESE,118,3.0,11.0,97,0.00,,,0.13,Wunderground v.1.15,2013-06-10 09:14:00,
2013-06-10 05:19:00,65.8,64.9,29.81,East,99,2.0,11.0,97,0.00,,,0.13,Wunderground v.1.15,2013-06-10 09:19:00,
2013-06-10 05:25:00,65.8,64.9,29.81,SE,126,2.0,11.0,97,0.00,,,0.13,Wunderground v.1.15,2013-06-10 09:25:00,
2013-06-10 05:30:00,65.9,65.3,29.81,SE,132,2.0,2.0,98,0.00,,,0.13,Wunderground v.1.15,2013-06-10 09:30:00,
2013-06-10 05:35:00,65.9,65.3,29.81,SE,138,2.0,11.0,98,0.00,,,0.13,Wunderground v.1.15,2013-06-10 09:35:00,
2013-06-10 05:41:00,65.9,65.3,29.80,ESE,121,2.0,11.0,98,0.00,,,0.13,Wunderground v.1.15,2013-06-10 09:41:00,
2013-06-10 05:46:00,66.0,65.4,29.80,SE,140,2.0,11.0,98,0.00,,,0.13,Wunderground v.1.15,2013-06-10 09:46:00,
2013-06-10 05:51:00,66.0,65.4,29.80,SE,133,2.0,4.0,98,0.00,,,0.13,Wunderground v.1.15,2013-06-10 09:51:00,
2013-06-10 05:57:00,66.0,65.4,29.80,ESE,109,1.0,11.0,98,0.00,,,0.13,Wunderground v.1.15,2013-06-10 09:57:00,
2013-06-10 06:02:00,66.0,65.4,29.80,SE,126,1.0,11.0,98,0.00,,,0.13,Wunderground v.1.15,2013-06-10 10:02:00,
2013-06-10 06:07:00,66.0,65.4,29.80,SE,146,1.0,11.0,98,0.00,,,0.13,Wunderground v.1.15,2013-06-10 10:07:00,
2013-06-10 06:12:00,66.0,65.4,29.80,ESE,103,1.0,11.0,98,0.00,,,0.13,Wunderground v.1.15,2013-06-10 10:12:00,
2013-06-10 06:17:00,66.0,65.4,29.80,ESE,111,1.0,11.0,98,0.00,,,0.13,Wunderground v.1.15,2013-06-10 10:17:00,
2013-06-10 06:22:00,66.0,65.4,29.80,ESE,104,1.0,11.0,98,0.00,,,0.13,Wunderground v.1.15,2013-06-10 10:22:00,
2013-06-10 06:28:00,66.1,65.5,29.79,ESE,104,1.0,11.0,98,0.00,,,0.13,Wunderground v.1.15,2013-06-10 10:28:00,
2013-06-10 06:33:00,66.1,65.5,29.79,ESE,121,2.0,11.0,98,0.00,,,0.13,Wunderground v.1.15,2013-06-10 10:33:00,
2013-06-10 06:38:00,66.1,65.5,29.79,ESE,121,1.0,11.0,98,0.00,,,0.13,Wunderground v.1.15,2013-06-10 10:38:00,
2013-06-10 06:44:00,66.2,65.6,29.79,ESE,116,2.0,11.0,98,0.00,,,0.13,Wunderground v.1.15,2013-06-10 10:44:00,
2013-06-10 06:49:00,66.2,65.6,29.79,East,98,2.0,11.0,98,0.00,,,0.13,Wunderground v.1.15,2013-06-10 10:49:00,
2013-06-10 06:54:00,66.3,65.7,29.79,SE,130,4.0,11.0,98,0.00,,,0.13,Wunderground v.1.15,2013-06-10 10:54:00,
2013-06-10 07:00:00,66.3,65.7,29.79,SE,142,4.0,11.0,98,0.00,,,0.13,Wunderground v.1.15,2013-06-10 11:00:00,
2013-06-10 07:05:00,66.4,65.8,29.79,ESE,119,3.0,11.0,98,0.00,,,0.13,Wunderground v.1.15,2013-06-10 11:05:00,
2013-06-10 07:10:00,66.4,65.8,29.79,SE,137,3.0,11.0,98,0.00,,,0.13,Wunderground v.1.15,2013-06-10 11:10:00,
2013-06-10 07:15:00,66.5,65.9,29.79,East,96,3.0,11.0,98,0.00,,,0.13,Wunderground v.1.15,2013-06-10 11:15:00,
2013-06-10 07:21:00,66.5,65.9,29.79,SE,136,2.0,11.0,98,0.00,,,0.13,Wunderground v.1.15,2013-06-10 11:21:00,
2013-06-10 07:26:00,66.5,65.9,29.78,SSE,147,3.0,11.0,98,0.00,,,0.13,Wunderground v.1.15,2013-06-10 11:26:00,
2013-06-10 07:31:00,66.6,66.0,29.78,SE,134,2.0,11.0,98,0.00,,,0.13,Wunderground v.1.15,2013-06-10 11:31:00,
2013-06-10 07:37:00,66.6,66.0,29.78,South,172,3.0,11.0,98,0.44,,,0.20,Wunderground v.1.15,2013-06-10 11:37:00,
2013-06-10 07:43:00,66.6,66.0,29.78,SSE,153,4.0,11.0,98,1.75,,,0.27,Wunderground v.1.15,2013-06-10 11:43:00,
2013-06-10 07:48:00,66.6,66.0,29.78,SSE,152,5.0,12.0,98,0.96,,,0.41,Wunderground v.1.15,2013-06-10 11:48:00,
2013-06-10 07:54:00,66.6,66.0,29.78,SSE,151,5.0,11.0,98,0.15,,,0.43,Wunderground v.1.15,2013-06-10 11:54:00,
2013-06-10 08:00:00,66.6,66.0,29.78,SE,130,2.0,11.0,98,0.10,,,0.44,Wunderground v.1.15,2013-06-10 12:00:00,
2013-06-10 08:05:00,66.7,66.1,29.78,SSE,152,3.0,11.0,98,0.10,,,0.44,Wunderground v.1.15,2013-06-10 12:05:00,
2013-06-10 08:10:00,66.7,66.1,29.78,South,173,3.0,11.0,98,0.05,,,0.44,Wunderground v.1.15,2013-06-10 12:10:00,
2013-06-10 08:16:00,66.8,66.2,29.77,South,175,4.0,11.0,98,0.04,,,0.45,Wunderground v.1.15,2013-06-10 12:16:00,
2013-06-10 08:21:00,66.8,66.2,29.78,South,174,5.0,11.0,98,0.17,,,0.46,Wunderground v.1.15,2013-06-10 12:21:00,
2013-06-10 08:26:00,66.8,66.2,29.78,South,179,5.0,11.0,98,0.07,,,0.46,Wunderground v.1.15,2013-06-10 12:26:00,
2013-06-10 08:32:00,66.8,66.2,29.78,SSW,200,6.0,11.0,98,0.04,,,0.46,Wunderground v.1.15,2013-06-10 12:32:00,
2013-06-10 08:38:00,66.8,66.2,29.78,South,180,3.0,11.0,98,0.00,,,0.46,Wunderground v.1.15,2013-06-10 12:38:00,
2013-06-10 08:43:00,66.8,66.2,29.78,SSE,151,4.0,11.0,98,0.00,,,0.47,Wunderground v.1.15,2013-06-10 12:43:00,
2013-06-10 08:48:00,66.8,66.2,29.78,South,182,7.0,11.0,98,0.11,,,0.48,Wunderground v.1.15,2013-06-10 12:48:00,
2013-06-10 08:53:00,66.8,66.2,29.78,SSE,159,6.0,11.0,98,0.09,,,0.49,Wunderground v.1.15,2013-06-10 12:53:00,
2013-06-10 08:59:00,66.8,66.2,29.78,SW,227,6.0,11.0,98,0.18,,,0.51,Wunderground v.1.15,2013-06-10 12:59:00,
2013-06-10 09:04:00,66.8,66.2,29.78,SSW,205,6.0,11.0,98,0.17,,,0.52,Wunderground v.1.15,2013-06-10 13:04:00,
2013-06-10 09:09:00,66.8,66.2,29.78,SSW,208,4.0,11.0,98,0.12,,,0.53,Wunderground v.1.15,2013-06-10 13:09:00,
2013-06-10 09:14:00,66.7,66.1,29.77,SSW,196,4.0,11.0,98,0.11,,,0.54,Wunderground v.1.15,2013-06-10 13:14:00,
2013-06-10 09:20:00,66.8,66.2,29.77,SW,214,3.0,3.0,98,0.10,,,0.55,Wunderground v.1.15,2013-06-10 13:20:00,
2013-06-10 09:25:00,66.8,66.2,29.77,SW,217,3.0,11.0,98,0.06,,,0.56,Wunderground v.1.15,2013-06-10 13:25:00,
2013-06-10 09:31:00,66.7,66.1,29.78,SSW,213,4.0,11.0,98,0.06,,,0.56,Wunderground v.1.15,2013-06-10 13:31:00,
2013-06-10 09:36:00,66.7,66.1,29.78,SSW,200,3.0,11.0,98,0.05,,,0.56,Wunderground v.1.15,2013-06-10 13:36:00,
2013-06-10 09:41:00,66.6,66.0,29.77,SW,214,4.0,11.0,98,0.00,,,0.56,Wunderground v.1.15,2013-06-10 13:41:00,
2013-06-10 09:46:00,66.7,66.1,29.77,WSW,238,5.0,11.0,98,0.00,,,0.56,Wunderground v.1.15,2013-06-10 13:46:00,
2013-06-10 09:52:00,66.9,66.3,29.77,SW,236,4.0,11.0,98,0.00,,,0.56,Wunderground v.1.15,2013-06-10 13:52:00,
2013-06-10 09:57:00,67.1,66.5,29.77,WSW,246,2.0,11.0,98,0.00,,,0.56,Wunderground v.1.15,2013-06-10 13:57:00,
2013-06-10 10:02:00,67.1,66.5,29.77,SW,235,1.0,11.0,98,0.00,,,0.56,Wunderground v.1.15,2013-06-10 14:02:00,
2013-06-10 10:07:00,67.3,66.7,29.76,SW,235,0.0,11.0,98,0.00,,,0.56,Wunderground v.1.15,2013-06-10 14:07:00,
2013-06-10 10:12:00,67.0,66.4,29.76,SW,225,1.0,11.0,98,0.00,,,0.57,Wunderground v.1.15,2013-06-10 14:12:00,
2013-06-10 10:17:00,67.0,66.4,29.76,SW,225,1.0,11.0,98,0.00,,,0.57,Wunderground v.1.15,2013-06-10 14:17:00,
2013-06-10 10:23:00,67.0,66.4,29.76,SW,225,1.0,11.0,98,0.00,,,0.57,Wunderground v.1.15,2013-06-10 14:23:00,
2013-06-10 10:28:00,67.1,66.5,29.77,SSW,205,2.0,11.0,98,0.00,,,0.57,Wunderground v.1.15,2013-06-10 14:28:00,
2013-06-10 10:33:00,67.0,66.1,29.77,SW,219,4.0,11.0,97,0.00,,,0.57,Wunderground v.1.15,2013-06-10 14:33:00,
2013-06-10 10:39:00,67.0,66.1,29.77,SW,215,4.0,11.0,97,0.00,,,0.57,Wunderground v.1.15,2013-06-10 14:39:00,
2013-06-10 10:44:00,67.1,66.2,29.77,SSW,205,3.0,11.0,97,0.00,,,0.57,Wunderground v.1.15,2013-06-10 14:44:00,
2013-06-10 10:49:00,67.3,66.7,29.77,South,188,3.0,11.0,98,0.00,,,0.57,Wunderground v.1.15,2013-06-10 14:49:00,
2013-06-10 10:54:00,67.4,66.5,29.77,SSW,206,2.0,11.0,97,0.00,,,0.57,Wunderground v.1.15,2013-06-10 14:54:00,
2013-06-10 11:00:00,67.6,66.7,29.76,SSW,201,2.0,11.0,97,0.00,,,0.57,Wunderground v.1.15,2013-06-10 15:00:00,
2013-06-10 11:05:00,67.6,66.7,29.76,SSW,205,3.0,11.0,97,0.00,,,0.57,Wunderground v.1.15,2013-06-10 15:05:00,
2013-06-10 11:10:00,67.6,66.7,29.76,SSW,197,2.0,2.0,97,0.00,,,0.57,Wunderground v.1.15,2013-06-10 15:10:00,
2013-06-10 11:16:00,67.6,66.7,29.76,SW,225,2.0,11.0,97,0.00,,,0.58,Wunderground v.1.15,2013-06-10 15:16:00,
2013-06-10 11:21:00,67.8,66.9,29.77,SW,234,3.0,11.0,97,0.00,,,0.58,Wunderground v.1.15,2013-06-10 15:21:00,
2013-06-10 11:26:00,67.9,67.0,29.77,SSW,192,5.0,11.0,97,0.00,,,0.58,Wunderground v.1.15,2013-06-10 15:26:00,
2013-06-10 11:32:00,67.9,67.0,29.77,SSW,207,6.0,11.0,97,0.00,,,0.58,Wunderground v.1.15,2013-06-10 15:32:00,
2013-06-10 11:37:00,68.0,67.1,29.77,South,190,5.0,11.0,97,0.00,,,0.58,Wunderground v.1.15,2013-06-10 15:37:00,
2013-06-10 11:42:00,67.8,66.6,29.77,SSW,196,6.0,11.0,96,0.00,,,0.58,Wunderground v.1.15,2013-06-10 15:42:00,
2013-06-10 11:48:00,67.9,66.7,29.77,SSE,150,4.0,11.0,96,0.00,,,0.58,Wunderground v.1.15,2013-06-10 15:48:00,
2013-06-10 11:53:00,67.8,66.6,29.77,SSW,209,3.0,11.0,96,0.00,,,0.58,Wunderground v.1.15,2013-06-10 15:53:00,
2013-06-10 11:58:00,67.4,66.2,29.78,SSW,210,5.0,12.0,96,0.00,,,0.58,Wunderground v.1.15,2013-06-10 15:58:00,
2013-06-10 12:04:00,67.0,65.8,29.78,South,188,5.0,11.0,96,0.44,,,0.63,Wunderground v.1.15,2013-06-10 16:04:00,
2013-06-10 12:09:00,66.7,65.5,29.78,South,176,5.0,11.0,96,0.27,,,0.69,Wunderground v.1.15,2013-06-10 16:09:00,
2013-06-10 12:14:00,66.7,65.5,29.78,WSW,238,5.0,11.0,96,0.08,,,0.69,Wunderground v.1.15,2013-06-10 16:14:00,
2013-06-10 12:19:00,66.9,66.0,29.78,SW,219,5.0,11.0,97,0.05,,,0.69,Wunderground v.1.15,2013-06-10 16:19:00,
2013-06-10 12:25:00,67.1,66.2,29.77,SSW,193,3.0,11.0,97,0.00,,,0.69,Wunderground v.1.15,2013-06-10 16:25:00,
2013-06-10 12:30:00,67.2,66.3,29.77,SSW,207,3.0,11.0,97,0.00,,,0.69,Wunderground v.1.15,2013-06-10 16:30:00,
2013-06-10 12:36:00,67.4,66.5,29.78,SSW,200,3.0,11.0,97,0.00,,,0.69,Wunderground v.1.15,2013-06-10 16:36:00,
2013-06-10 12:41:00,67.7,66.8,29.77,SSW,209,4.0,11.0,97,0.00,,,0.69,Wunderground v.1.15,2013-06-10 16:41:00,
2013-06-10 12:46:00,68.0,67.1,29.77,SSW,196,5.0,11.0,97,0.00,,,0.69,Wunderground v.1.15,2013-06-10 16:46:00,
2013-06-10 12:51:00,67.9,66.7,29.77,South,182,6.0,11.0,96,0.00,,,0.69,Wunderground v.1.15,2013-06-10 16:51:00,
2013-06-10 12:57:00,67.9,66.4,29.76,SSW,211,5.0,11.0,95,0.00,,,0.69,Wunderground v.1.15,2013-06-10 16:57:00,
2013-06-10 13:03:00,67.9,66.4,29.77,SSW,205,4.0,11.0,95,0.00,,,0.69,Wunderground v.1.15,2013-06-10 17:03:00,
2013-06-10 13:08:00,67.7,65.9,29.77,SSW,209,6.0,11.0,94,0.00,,,0.69,Wunderground v.1.15,2013-06-10 17:08:00,
2013-06-10 13:14:00,67.4,65.6,29.77,SSW,206,5.0,11.0,94,0.00,,,0.69,Wunderground v.1.15,2013-06-10 17:14:00,
2013-06-10 13:19:00,67.2,65.4,29.78,SSW,202,5.0,11.0,94,0.00,,,0.69,Wunderground v.1.15,2013-06-10 17:19:00,
2013-06-10 13:25:00,67.2,65.4,29.77,South,186,6.0,12.0,94,0.00,,,0.69,Wunderground v.1.15,2013-06-10 17:25:00,
2013-06-10 13:30:00,67.3,65.5,29.77,SSW,211,6.0,11.0,94,0.00,,,0.69,Wunderground v.1.15,2013-06-10 17:30:00,
2013-06-10 13:35:00,67.5,65.7,29.77,SSW,205,6.0,12.0,94,0.00,,,0.69,Wunderground v.1.15,2013-06-10 17:35:00,
2013-06-10 13:41:00,67.5,65.4,29.77,SW,219,6.0,11.0,93,0.00,,,0.69,Wunderground v.1.15,2013-06-10 17:41:00,
2013-06-10 13:46:00,67.4,65.3,29.77,SW,220,8.0,12.0,93,0.00,,,0.69,Wunderground v.1.15,2013-06-10 17:46:00,
2013-06-10 13:51:00,67.5,65.4,29.77,SW,227,8.0,15.0,93,0.00,,,0.69,Wunderground v.1.15,2013-06-10 17:51:00,
2013-06-10 13:57:00,68.0,65.9,29.78,SSW,196,7.0,15.0,93,0.00,,,0.69,Wunderground v.1.15,2013-06-10 17:57:00,
2013-06-10 14:03:00,68.1,66.0,29.77,WSW,258,6.0,11.0,93,0.00,,,0.69,Wunderground v.1.15,2013-06-10 18:03:00,
2013-06-10 14:08:00,68.4,66.3,29.77,WSW,248,5.0,11.0,93,0.00,,,0.69,Wunderground v.1.15,2013-06-10 18:08:00,
2013-06-10 14:13:00,68.6,66.2,29.77,WSW,237,4.0,11.0,92,0.00,,,0.69,Wunderground v.1.15,2013-06-10 18:13:00,
2013-06-10 14:19:00,69.0,66.6,29.77,SSW,211,4.0,11.0,92,0.00,,,0.69,Wunderground v.1.15,2013-06-10 18:19:00,
2013-06-10 14:24:00,70.1,67.7,29.77,SSW,205,3.0,12.0,92,0.00,,,0.69,Wunderground v.1.15,2013-06-10 18:24:00,
2013-06-10 14:30:00,71.0,67.6,29.77,SW,229,6.0,11.0,89,0.00,,,0.69,Wunderground v.1.15,2013-06-10 18:30:00,
2013-06-10 14:35:00,71.4,67.7,29.77,WSW,238,5.0,11.0,88,0.00,,,0.69,Wunderground v.1.15,2013-06-10 18:35:00,
2013-06-10 14:40:00,71.8,68.1,29.76,SW,217,3.0,3.0,88,0.00,,,0.69,Wunderground v.1.15,2013-06-10 18:40:00,
2013-06-10 14:46:00,71.6,67.2,29.76,SSW,209,3.0,11.0,86,0.00,,,0.69,Wunderground v.1.15,2013-06-10 18:46:00,
2013-06-10 14:52:00,71.9,67.8,29.76,SSW,199,2.0,11.0,87,0.00,,,0.69,Wunderground v.1.15,2013-06-10 18:52:00,
2013-06-10 14:57:00,71.8,67.4,29.75,South,191,1.0,11.0,86,0.00,,,0.69,Wunderground v.1.15,2013-06-10 18:57:00,
2013-06-10 15:02:00,72.1,67.7,29.75,SSW,210,2.0,11.0,86,0.00,,,0.69,Wunderground v.1.15,2013-06-10 19:02:00,
2013-06-10 15:07:00,72.8,67.7,29.75,West,273,4.0,11.0,84,0.00,,,0.69,Wunderground v.1.15,2013-06-10 19:07:00,
2013-06-10 15:12:00,73.3,67.5,29.75,SSW,200,7.0,11.0,82,0.00,,,0.69,Wunderground v.1.15,2013-06-10 19:12:00,
2013-06-10 15:18:00,74.1,67.9,29.75,SSW,204,6.0,11.0,81,0.00,,,0.69,Wunderground v.1.15,2013-06-10 19:18:00,
2013-06-10 15:24:00,74.4,68.2,29.75,WSW,238,6.0,11.0,81,0.00,,,0.69,Wunderground v.1.15,2013-06-10 19:24:00,
2013-06-10 15:29:00,74.7,68.1,29.75,SW,228,5.0,11.0,80,0.00,,,0.69,Wunderground v.1.15,2013-06-10 19:29:00,
2013-06-10 15:34:00,73.8,66.9,29.75,SSW,200,5.0,11.0,79,0.00,,,0.69,Wunderground v.1.15,2013-06-10 19:34:00,
2013-06-10 15:40:00,74.0,67.4,29.75,WSW,250,5.0,5.0,80,0.00,,,0.69,Wunderground v.1.15,2013-06-10 19:40:00,
2013-06-10 15:46:00,74.9,68.3,29.75,WSW,238,5.0,11.0,80,0.00,,,0.69,Wunderground v.1.15,2013-06-10 19:46:00,
2013-06-10 15:52:00,75.3,68.0,29.74,SSW,199,6.0,11.0,78,0.00,,,0.69,Wunderground v.1.15,2013-06-10 19:52:00,
2013-06-10 15:57:00,75.6,68.6,29.74,SW,217,5.0,11.0,79,0.00,,,0.69,Wunderground v.1.15,2013-06-10 19:57:00,
2013-06-10 16:02:00,75.6,68.6,29.74,WSW,252,4.0,11.0,79,0.00,,,0.69,Wunderground v.1.15,2013-06-10 20:02:00,
2013-06-10 16:07:00,75.9,67.4,29.73,SW,234,5.0,11.0,75,0.00,,,0.69,Wunderground v.1.15,2013-06-10 20:07:00,
2013-06-10 16:13:00,76.3,68.9,29.74,West,259,4.0,11.0,78,0.00,,,0.69,Wunderground v.1.15,2013-06-10 20:13:00,
2013-06-10 16:18:00,76.7,68.6,29.73,SW,235,4.0,11.0,76,0.00,,,0.69,Wunderground v.1.15,2013-06-10 20:18:00,
2013-06-10 16:24:00,77.2,68.3,29.73,South,178,4.0,11.0,74,0.00,,,0.69,Wunderground v.1.15,2013-06-10 20:24:00,
2013-06-10 16:29:00,77.3,67.6,29.72,West,260,4.0,11.0,72,0.00,,,0.69,Wunderground v.1.15,2013-06-10 20:29:00,
2013-06-10 16:35:00,76.8,66.7,29.72,SSW,201,6.0,11.0,71,0.00,,,0.69,Wunderground v.1.15,2013-06-10 20:35:00,
2013-06-10 16:40:00,77.1,67.0,29.72,SW,231,5.0,11.0,71,0.00,,,0.69,Wunderground v.1.15,2013-06-10 20:40:00,
2013-06-10 16:46:00,77.3,66.7,29.72,SW,231,4.0,11.0,70,0.00,,,0.69,Wunderground v.1.15,2013-06-10 20:46:00,
2013-06-10 16:51:00,76.9,65.5,29.73,SW,216,4.0,11.0,68,0.00,,,0.69,Wunderground v.1.15,2013-06-10 20:51:00,
2013-06-10 16:57:00,76.8,65.4,29.72,WNW,286,5.0,11.0,68,0.00,,,0.69,Wunderground v.1.15,2013-06-10 20:57:00,
2013-06-10 17:02:00,76.5,65.1,29.73,WSW,240,5.0,11.0,68,0.00,,,0.69,Wunderground v.1.15,2013-06-10 21:02:00,
2013-06-10 17:08:00,76.2,65.3,29.73,SW,229,4.0,11.0,69,0.00,,,0.69,Wunderground v.1.15,2013-06-10 21:08:00,
2013-06-10 17:13:00,76.2,65.7,29.72,WSW,244,2.0,11.0,70,0.00,,,0.69,Wunderground v.1.15,2013-06-10 21:13:00,
2013-06-10 17:18:00,76.0,65.5,29.72,SSW,202,3.0,11.0,70,0.00,,,0.69,Wunderground v.1.15,2013-06-10 21:18:00,
2013-06-10 17:24:00,75.8,65.7,29.72,SW,223,3.0,11.0,71,0.00,,,0.69,Wunderground v.1.15,2013-06-10 21:24:00,
2013-06-10 17:29:00,76.0,65.9,29.73,SW,228,2.0,11.0,71,0.00,,,0.69,Wunderground v.1.15,2013-06-10 21:29:00,
2013-06-10 17:34:00,76.1,66.0,29.73,SSW,211,3.0,11.0,71,0.00,,,0.69,Wunderground v.1.15,2013-06-10 21:34:00,
2013-06-10 17:40:00,76.0,65.5,29.73,SW,220,5.0,11.0,70,0.00,,,0.69,Wunderground v.1.15,2013-06-10 21:40:00,
2013-06-10 17:45:00,75.4,65.3,29.73,SW,220,5.0,11.0,71,0.00,,,0.69,Wunderground v.1.15,2013-06-10 21:45:00,
2013-06-10 17:50:00,75.1,65.9,29.73,SSW,198,3.0,11.0,73,0.00,,,0.69,Wunderground v.1.15,2013-06-10 21:50:00,
2013-06-10 17:56:00,75.0,65.8,29.72,SSW,194,1.0,11.0,73,0.00,,,0.69,Wunderground v.1.15,2013-06-10 21:56:00,
2013-06-10 18:01:00,74.9,65.7,29.72,SSW,195,2.0,11.0,73,0.00,,,0.69,Wunderground v.1.15,2013-06-10 22:01:00,
2013-06-10 18:07:00,74.8,66.0,29.72,South,180,1.0,11.0,74,0.00,,,0.69,Wunderground v.1.15,2013-06-10 22:07:00,
2013-06-10 18:12:00,74.5,66.1,29.72,SSW,204,1.0,11.0,75,0.00,,,0.69,Wunderground v.1.15,2013-06-10 22:12:00,
2013-06-10 18:17:00,74.3,65.9,29.72,SSW,194,1.0,11.0,75,0.00,,,0.69,Wunderground v.1.15,2013-06-10 22:17:00,
2013-06-10 18:22:00,74.2,66.5,29.72,SSW,194,2.0,11.0,77,0.00,,,0.69,Wunderground v.1.15,2013-06-10 22:22:00,
2013-06-10 18:28:00,73.9,66.6,29.72,SW,229,3.0,11.0,78,0.00,,,0.69,Wunderground v.1.15,2013-06-10 22:28:00,
2013-06-10 18:33:00,73.1,65.8,29.72,SSW,198,7.0,13.0,78,0.00,,,0.69,Wunderground v.1.15,2013-06-10 22:33:00,
2013-06-10 18:38:00,72.3,65.8,29.73,WSW,237,10.0,20.0,80,0.00,,,0.69,Wunderground v.1.15,2013-06-10 22:38:00,
2013-06-10 18:44:00,70.9,64.4,29.74,SW,229,12.0,17.0,80,0.00,,,0.69,Wunderground v.1.15,2013-06-10 22:44:00,
2013-06-10 18:49:00,69.8,64.1,29.74,South,190,12.0,17.0,82,0.00,,,0.69,Wunderground v.1.15,2013-06-10 22:49:00,
2013-06-10 18:54:00,68.6,63.9,29.74,South,186,10.0,15.0,85,0.00,,,0.69,Wunderground v.1.15,2013-06-10 22:54:00,
2013-06-10 18:59:00,67.6,63.9,29.74,South,173,8.0,15.0,88,0.00,,,0.69,Wunderground v.1.15,2013-06-10 22:59:00,
2013-06-10 19:05:00,67.0,64.0,29.74,WSW,238,6.0,11.0,90,0.00,,,0.69,Wunderground v.1.15,2013-06-10 23:05:00,
2013-06-10 19:10:00,67.0,64.3,29.74,WSW,247,6.0,15.0,91,0.00,,,0.69,Wunderground v.1.15,2013-06-10 23:10:00,
2013-06-10 19:15:00,67.1,64.4,29.75,WSW,244,7.0,15.0,91,0.00,,,0.69,Wunderground v.1.15,2013-06-10 23:15:00,
2013-06-10 19:20:00,67.2,64.2,29.75,SSW,212,7.0,11.0,90,0.00,,,0.69,Wunderground v.1.15,2013-06-10 23:20:00,
2013-06-10 19:26:00,67.2,64.2,29.75,SW,233,6.0,11.0,90,0.00,,,0.69,Wunderground v.1.15,2013-06-10 23:26:00,
2013-06-10 19:31:00,67.4,64.0,29.74,WSW,248,5.0,11.0,89,0.00,,,0.69,Wunderground v.1.15,2013-06-10 23:31:00,
2013-06-10 19:36:00,67.6,64.2,29.74,SW,235,3.0,11.0,89,0.00,,,0.69,Wunderground v.1.15,2013-06-10 23:36:00,
2013-06-10 19:42:00,67.9,64.2,29.74,SW,219,4.0,11.0,88,0.00,,,0.69,Wunderground v.1.15,2013-06-10 23:42:00,
2013-06-10 19:47:00,67.9,64.2,29.74,WSW,250,5.0,11.0,88,0.00,,,0.69,Wunderground v.1.15,2013-06-10 23:47:00,
2013-06-10 19:52:00,68.0,64.3,29.74,WSW,250,4.0,11.0,88,0.00,,,0.69,Wunderground v.1.15,2013-06-10 23:52:00,
2013-06-10 19:57:00,68.0,64.3,29.74,WSW,253,3.0,11.0,88,0.00,,,0.69,Wunderground v.1.15,2013-06-10 23:57:00,
2013-06-10 20:03:00,67.9,63.9,29.74,SW,219,2.0,11.0,87,0.00,,,0.69,Wunderground v.1.15,2013-06-11 00:03:00,
2013-06-10 20:08:00,67.7,63.7,29.75,WSW,246,1.0,11.0,87,0.00,,,0.69,Wunderground v.1.15,2013-06-11 00:08:00,
2013-06-10 20:14:00,67.6,63.9,29.75,SW,230,1.0,11.0,88,0.00,,,0.69,Wunderground v.1.15,2013-06-11 00:14:00,
2013-06-10 20:19:00,67.5,63.8,29.75,SW,230,1.0,11.0,88,0.00,,,0.69,Wunderground v.1.15,2013-06-11 00:19:00,
2013-06-10 20:25:00,67.4,64.0,29.75,SW,230,0.0,11.0,89,0.00,,,0.69,Wunderground v.1.15,2013-06-11 00:25:00,
2013-06-10 20:30:00,67.3,63.6,29.76,SW,230,0.0,11.0,88,0.00,,,0.69,Wunderground v.1.15,2013-06-11 00:30:00,
2013-06-10 20:35:00,67.2,63.5,29.76,SW,230,0.0,11.0,88,0.00,,,0.69,Wunderground v.1.15,2013-06-11 00:35:00,
2013-06-10 20:40:00,67.2,63.8,29.76,SW,230,0.0,11.0,89,0.00,,,0.69,Wunderground v.1.15,2013-06-11 00:40:00,
2013-06-10 20:45:00,67.1,63.7,29.76,SSW,212,0.0,11.0,89,0.00,,,0.69,Wunderground v.1.15,2013-06-11 00:45:00,
2013-06-10 20:51:00,66.8,63.5,29.76,SSW,211,0.0,11.0,89,0.00,,,0.69,Wunderground v.1.15,2013-06-11 00:51:00,
2013-06-10 20:56:00,66.6,63.3,29.76,SSW,211,0.0,11.0,89,0.00,,,0.69,Wunderground v.1.15,2013-06-11 00:56:00,
2013-06-10 21:01:00,66.4,63.1,29.76,SSW,212,0.0,11.0,89,0.00,,,0.69,Wunderground v.1.15,2013-06-11 01:01:00,
2013-06-10 21:06:00,66.3,63.3,29.76,SSW,212,0.0,11.0,90,0.00,,,0.69,Wunderground v.1.15,2013-06-11 01:06:00,
2013-06-10 21:11:00,66.1,63.1,29.76,SSW,213,0.0,11.0,90,0.00,,,0.69,Wunderground v.1.15,2013-06-11 01:11:00,
2013-06-10 21:17:00,66.0,63.0,29.76,SSW,213,0.0,11.0,90,0.00,,,0.69,Wunderground v.1.15,2013-06-11 01:17:00,
2013-06-10 21:22:00,65.9,62.9,29.76,SSW,213,1.0,11.0,90,0.00,,,0.69,Wunderground v.1.15,2013-06-11 01:22:00,
2013-06-10 21:28:00,65.9,62.9,29.76,SW,214,0.0,11.0,90,0.00,,,0.69,Wunderground v.1.15,2013-06-11 01:28:00,
2013-06-10 21:34:00,65.8,62.8,29.76,SW,214,0.0,11.0,90,0.00,,,0.69,Wunderground v.1.15,2013-06-11 01:34:00,
2013-06-10 21:39:00,65.8,62.8,29.76,SW,215,1.0,11.0,90,0.00,,,0.69,Wunderground v.1.15,2013-06-11 01:39:00,
2013-06-10 21:44:00,65.7,63.0,29.76,SW,215,1.0,11.0,91,0.00,,,0.69,Wunderground v.1.15,2013-06-11 01:44:00,
2013-06-10 21:50:00,65.6,62.9,29.76,SW,215,0.0,11.0,91,0.00,,,0.69,Wunderground v.1.15,2013-06-11 01:50:00,
2013-06-10 21:56:00,65.6,62.9,29.77,SSW,210,1.0,11.0,91,0.00,,,0.69,Wunderground v.1.15,2013-06-11 01:56:00,
2013-06-10 22:01:00,65.6,62.9,29.76,SSW,213,1.0,11.0,91,0.00,,,0.69,Wunderground v.1.15,2013-06-11 02:01:00,
2013-06-10 22:07:00,65.6,62.9,29.77,SSW,213,0.0,11.0,91,0.00,,,0.69,Wunderground v.1.15,2013-06-11 02:07:00,
2013-06-10 22:12:00,65.6,63.2,29.77,SSW,213,0.0,11.0,92,0.00,,,0.69,Wunderground v.1.15,2013-06-11 02:12:00,
2013-06-10 22:18:00,65.6,63.2,29.77,SSW,213,0.0,11.0,92,0.00,,,0.69,Wunderground v.1.15,2013-06-11 02:18:00,
2013-06-10 22:23:00,65.7,63.3,29.77,SSW,213,1.0,11.0,92,0.00,,,0.69,Wunderground v.1.15,2013-06-11 02:23:00,
2013-06-10 22:29:00,65.8,63.4,29.77,SSW,213,0.0,11.0,92,0.00,,,0.69,Wunderground v.1.15,2013-06-11 02:29:00,
2013-06-10 22:34:00,65.9,63.5,29.77,SSW,213,1.0,11.0,92,0.00,,,0.69,Wunderground v.1.15,2013-06-11 02:34:00,
2013-06-10 22:39:00,65.8,63.4,29.77,SSW,213,0.0,11.0,92,0.00,,,0.69,Wunderground v.1.15,2013-06-11 02:39:00,
2013-06-10 22:44:00,65.8,63.7,29.78,SSW,213,0.0,11.0,93,0.00,,,0.69,Wunderground v.1.15,2013-06-11 02:44:00,
2013-06-10 22:49:00,65.8,63.7,29.78,SSW,213,1.0,11.0,93,0.00,,,0.69,Wunderground v.1.15,2013-06-11 02:49:00,
2013-06-10 22:55:00,65.8,63.7,29.78,SSW,213,0.0,11.0,93,0.00,,,0.69,Wunderground v.1.15,2013-06-11 02:55:00,
2013-06-10 23:00:00,65.7,63.6,29.78,SW,215,1.0,1.0,93,0.00,,,0.69,Wunderground v.1.15,2013-06-11 03:00:00,
2013-06-10 23:05:00,65.7,63.6,29.79,SW,215,1.0,11.0,93,0.00,,,0.69,Wunderground v.1.15,2013-06-11 03:05:00,
2013-06-10 23:10:00,65.7,63.6,29.79,SW,215,1.0,1.0,93,0.00,,,0.69,Wunderground v.1.15,2013-06-11 03:10:00,
2013-06-10 23:16:00,65.7,63.9,29.79,SW,215,0.0,11.0,94,0.00,,,0.69,Wunderground v.1.15,2013-06-11 03:16:00,
2013-06-10 23:21:00,65.6,63.8,29.79,SW,215,0.0,11.0,94,0.00,,,0.69,Wunderground v.1.15,2013-06-11 03:21:00,
2013-06-10 23:26:00,65.6,63.8,29.78,SW,215,1.0,11.0,94,0.00,,,0.69,Wunderground v.1.15,2013-06-11 03:26:00,
2013-06-10 23:32:00,65.5,63.7,29.78,SW,215,1.0,11.0,94,0.00,,,0.69,Wunderground v.1.15,2013-06-11 03:32:00,
2013-06-10 23:38:00,65.3,63.5,29.78,SW,215,1.0,11.0,94,0.00,,,0.69,Wunderground v.1.15,2013-06-11 03:38:00,
2013-06-10 23:43:00,65.2,63.4,29.79,SW,215,1.0,11.0,94,0.00,,,0.69,Wunderground v.1.15,2013-06-11 03:43:00,
2013-06-10 23:48:00,65.1,63.6,29.79,SW,215,1.0,11.0,95,0.00,,,0.69,Wunderground v.1.15,2013-06-11 03:48:00,
2013-06-10 23:53:00,65.0,63.5,29.79,SSW,211,2.0,11.0,95,0.00,,,0.69,Wunderground v.1.15,2013-06-11 03:53:00,
2013-06-10 23:59:00,65.0,63.5,29.79,SSW,209,3.0,11.0,95,0.00,,,0.69,Wunderground v.1.15,2013-06-11 03:59:00,